This is the latest recevied weather packets stored in our database for station/object LA5PPA-1. If no packets are shown the sender has not sent any weather packets the latest 1 day(s).
| Time | Temp. | Humidity | Pressure | Rain* | Wind** | Luminosity | Snow |
|---|---|---|---|---|---|---|---|
| 1777970638 | -1.11° C | 54% | 1013.5 hPa | 0 mm | 1.79 m/s, 330° | - | - |
| 1777970517 | -1.11° C | 53% | 1013.5 hPa | 0 mm | 1.79 m/s, 307° | - | - |
| 1777970217 | -1.11° C | 52% | 1013.4 hPa | 0 mm | 2.24 m/s, 313° | - | - |
| 1777969978 | -1.11° C | 54% | 1013.4 hPa | 0 mm | 2.68 m/s, 330° | - | - |
| 1777969917 | -1.67° C | 54% | 1013.4 hPa | 0 mm | 1.79 m/s, 289° | - | - |
| 1777969617 | -1.67° C | 53% | 1013.4 hPa | 0 mm | 1.79 m/s, 295° | - | - |
| 1777969317 | -1.67° C | 54% | 1013.4 hPa | 0 mm | 2.68 m/s, 258° | - | - |
| 1777969017 | -1.67° C | 55% | 1013.4 hPa | 0 mm | 3.58 m/s, 317° | - | - |
| 1777968717 | -1.67° C | 54% | 1013.4 hPa | 0 mm | 4.02 m/s, 324° | - | - |
| 1777968658 | -1.67° C | 54% | 1013.4 hPa | 0 mm | 6.26 m/s, 306° | - | - |
| 1777968417 | -1.67° C | 57% | 1013.4 hPa | 0 mm | 1.34 m/s, 316° | - | - |
| 1777968117 | -1.67° C | 56% | 1013.4 hPa | 0 mm | 2.68 m/s, 317° | - | - |
| 1777967998 | -2.22° C | 57% | 1013.4 hPa | 0 mm | 2.68 m/s, 333° | - | - |
| 1777967817 | -2.22° C | 58% | 1013.4 hPa | 0 mm | 2.68 m/s, 300° | - | - |
| 1777967517 | -2.22° C | 57% | 1013.4 hPa | 0 mm | 2.68 m/s, 289° | - | - |
| 1777967338 | -2.22° C | 58% | 1013.3 hPa | 0 mm | 4.92 m/s, 299° | - | - |
| 1777967217 | -2.22° C | 59% | 1013.3 hPa | 0 mm | 4.02 m/s, 296° | - | - |
| 1777966917 | -2.22° C | 60% | 1013.3 hPa | 0 mm | 3.13 m/s, 268° | - | - |
| 1777966678 | -2.78° C | 58% | 1013.4 hPa | 0 mm | 3.58 m/s, 305° | - | - |
| 1777966617 | -2.78° C | 59% | 1013.3 hPa | 0 mm | 3.13 m/s, 319° | - | - |
| 1777966317 | -2.78° C | 59% | 1013.4 hPa | 0 mm | 3.58 m/s, 322° | - | - |
| 1777966017 | -2.78° C | 60% | 1013.3 hPa | 0 mm | 4.02 m/s, 307° | - | - |
* Rain latest hour (hover to see other rain measurements)
** Current wind speed in m/s (hover to see current wind gust speed)